This is the latest recevied weather packets stored in our database for station/object KD5UMO-1. If no packets are shown the sender has not sent any weather packets the latest 10 day(s).
| Time | Temp. | Humidity | Pressure | Rain* | Wind** | Luminosity | Snow |
|---|---|---|---|---|---|---|---|
| 1777505460 | 16.67° C | 81% | 1013.2 hPa | 0 mm | - | 67 W/m² | - |
| 1777505157 | 16.67° C | 82% | 1013.2 hPa | 0 mm | - | 58 W/m² | - |
| 1777504854 | 16.67° C | 82% | 1013.5 hPa | 0 mm | - | 31 W/m² | - |
| 1777504551 | 16.67° C | 82% | 1013.4 hPa | 0 mm | - | 59 W/m² | - |
| 1777504246 | 16.67° C | 82% | 1013.1 hPa | 0 mm | - | 93 W/m² | - |
| 1777503942 | 16.67° C | 83% | 1013.5 hPa | 0 mm | - | 67 W/m² | - |
| 1777503639 | 16.67° C | 84% | 1013.7 hPa | 0 mm | - | 75 W/m² | - |
| 1777503336 | 16.67° C | 84% | 1013.9 hPa | 0 mm | - | 59 W/m² | - |
| 1777503032 | 16.11° C | 84% | 1013.9 hPa | 0.51 mm | - | 74 W/m² | - |
| 1777502730 | 16.67° C | 83% | 1014.1 hPa | 0.51 mm | - | 80 W/m² | - |
| 1777502426 | 16.67° C | 81% | 1014.1 hPa | 0 mm | - | 48 W/m² | - |
| 1777502123 | 16.67° C | 81% | 1014 hPa | 0 mm | - | 42 W/m² | - |
| 1777501821 | 16.67° C | 82% | 1013.8 hPa | 0 mm | - | 75 W/m² | - |
| 1777501518 | 16.67° C | 81% | 1013.9 hPa | 0 mm | - | 91 W/m² | - |
| 1777501215 | 16.67° C | 81% | 1014.2 hPa | 0 mm | - | 51 W/m² | - |
| 1777500913 | 16.67° C | 81% | 1014 hPa | 0 mm | - | 56 W/m² | - |
| 1777500610 | 17.78° C | 78% | 1013.9 hPa | 0 mm | - | 85 W/m² | - |
| 1777500306 | 17.78° C | 78% | 1013.5 hPa | 0 mm | - | 188 W/m² | - |
| 1777500003 | 17.78° C | 78% | 1012.6 hPa | 0 mm | - | 348 W/m² | - |
| 1777499699 | 17.22° C | 78% | 1012.4 hPa | 0 mm | - | 259 W/m² | - |
| 1777499396 | 17.22° C | 78% | 1012.7 hPa | 0 mm | - | 204 W/m² | - |
| 1777499095 | 17.22° C | 78% | 1012.8 hPa | 0 mm | - | 219 W/m² | - |
| 1777498791 | 17.22° C | 79% | 1012.9 hPa | 0 mm | - | 185 W/m² | - |
| 1777498487 | 17.22° C | 79% | 1012.9 hPa | 0 mm | - | 198 W/m² | - |
| 1777498183 | 17.22° C | 79% | 1013.2 hPa | 0 mm | - | 238 W/m² | - |
* Rain latest hour (hover to see other rain measurements)
** Current wind speed in m/s (hover to see current wind gust speed)